Zurück zum Katalog

SL-14 DEB

AktivPO
NORAD 26017·DEBRIS·🇷🇺 Russia

Gestartet Sep 28, 1991 von Plesetsk Cosmodrome

Loading…

Nächste Überflüge (nächste 24 Stunden)

TLE

AktuellSource: Space-Track

Epoche: Sep 14, 2026, 10:34 UTC

1 26017U 91068AC  26257.44084884  .00000001  00000-0 -64039-4 0  9990
2 26017  82.6866 250.2093 0060419  22.5485 131.2116 12.43346804590982

Verfolge SL-14 DEB in Echtzeit mit AllMySat

Download on the App Store